STARLINK-1222, 45228

Orbit data source: Space-Track

STARLINK-1222, 45228 is a payload satellite owned by SpaceX/Seattle (US) in LEO that was launched on Mon, 17 Feb 2020 UTC via an FALCON 9 launch vehicle from the Air Force Eastern Test Range (AFETR). Payload-class satellites include a variety of spacecraft equipped with specific instruments for various scientific and technological missions. These include communications satellites like Starlink; space stations such as the ISS; scientific satellites like the Hubble; Earth observation satellites from companies like Planet Labs, Umbra, and HawkEye 360; GPS; miniature CubeSats for education and research; and military/defense satellites.

Loading next visibility...
Identifier
45228, 2020-012BC
Orbit
LEO
Country
Flag of USUS
Related business
Manufacturer
SpaceX/Seattle
Mission
Partially operational Commercial Communications
Bus & Motor
STARLINK, Unknown motor
Mass
260 kg wet, ~248 kg dry
Launch date (UTC)
2020-02-17 (6 years ago)
Launch vehicle
FALCON 9
Launch site
Air Force Eastern Test Range (AFETR)
Object type
Payload
Rocket body
Debris
Shape & HBR
Box + 1 Pan, 10.1 m
Radar Cross Section
13.562 m², Large (>1 m²)

Expand to show TLE details & history
Last TLE update: 19 hours ago

TLE from 19 hours ago
0 STARLINK-1222
1 45228U 20012BC  26124.15762746  .00035954  00000-0  57274-3 0  9993
2 45228  53.0532  76.1828 0001003  49.0592 311.0504 15.52936334344237
Epoch: 2026-05-04T03:46Z
TLE epoch observation values (Epoch: 2026-05-04T03:46:59.012Z)
Latitude
-0.00002°
Longitude
157.38605°
Altitude
408.608 km
Speed
7.667 km/s
True Right ascension
05h 04m 43s
True Declination
0° 00' 00"
Sunlit
Object was in daylight at epoch
Visualization orbit readout
Latitude
Unknown
Longitude
Unknown
Altitude
Unknown
Speed
Unknown
Apparent Right ascension
Unknown
Apparent Declination
Unknown
Sunlit
N/A
Visualization observer readout
Local Sidereal Time
06:43:11
Azimuth
Unknown
Elevation
Unknown
Doppler factor
Unknown
Orbital elements
Apogee altitude
409.115 km
Perigee altitude
407.754 km
Semi-major axis
6,786.571 km
Eccentricity
0.0001
Inclination
53.0532°
RAAN
76.1828°
Arg. of periapsis
49.0592°
True anomaly
311.04173°
Mean anomaly
311.0504°
Eccentric anomaly
311.04607°
Mean motion
3.88211 °/min
Orbital period
92.73 mins
BSTAR
0.00057274
Loading maneuver chart data...
Computing Atmospheric mass density...
Loading historical data...
Loading historical data...
Loading historical data...
Loading historical data...
Loading historical data...
Loading historical data...
Loading historical data...

Documentation

Showing up to 5 results
|